AAL3084 KDFW-KICT

Flight info

Callsign AAL3084
Flight time 0h 45m
Altitude 34000
Route BLECO8 ZEMMA HUSKA
Aircraft A320/M-SDE3FGHIRWY/LB1

Departure

Time 2026-05-06 14:11
Airport Dallas Fort Worth International Airport (KDFW)

Arrival

Time 2026-05-06 14:56
Airport Wichita Dwight D. Eisenhower National Airport (KICT)
Time Latitude Longitude Altitude Speed Heading
2026-05-06 13:37 32.89780 -97.03487 598 ft 0 kts 261°
2026-05-06 13:57 32.89780 -97.03486 598 ft 2 kts 261°
2026-05-06 13:57 32.89784 -97.03457 598 ft 4 kts 259°
2026-05-06 13:58 32.89790 -97.03425 598 ft 4 kts 247°
2026-05-06 13:58 32.89804 -97.03403 598 ft 4 kts 195°
2026-05-06 13:58 32.89826 -97.03401 598 ft 3 kts 180°
2026-05-06 13:58 32.89828 -97.03401 598 ft 0 kts 180°
2026-05-06 14:02 32.89823 -97.03399 602 ft 2 kts 167°
2026-05-06 14:02 32.89807 -97.03375 576 ft 6 kts 111°
2026-05-06 14:03 32.89787 -97.03324 598 ft 8 kts 147°
2026-05-06 14:03 32.89722 -97.03317 598 ft 11 kts 180°
2026-05-06 14:03 32.89625 -97.03317 598 ft 16 kts 180°
2026-05-06 14:03 32.89506 -97.03318 598 ft 18 kts 180°
2026-05-06 14:04 32.89372 -97.03319 598 ft 20 kts 180°
2026-05-06 14:04 32.89223 -97.03319 598 ft 22 kts 180°
2026-05-06 14:04 32.89061 -97.03321 598 ft 24 kts 180°
2026-05-06 14:04 32.88892 -97.03322 598 ft 25 kts 180°
2026-05-06 14:05 32.88723 -97.03322 598 ft 24 kts 180°
2026-05-06 14:05 32.88583 -97.03323 598 ft 17 kts 180°
2026-05-06 14:05 32.88501 -97.03363 598 ft 14 kts 251°
2026-05-06 14:05 32.88500 -97.03490 598 ft 17 kts 270°
2026-05-06 14:06 32.88500 -97.03643 598 ft 20 kts 270°
2026-05-06 14:06 32.88501 -97.03818 598 ft 22 kts 270°
2026-05-06 14:06 32.88502 -97.04014 598 ft 25 kts 269°
2026-05-06 14:06 32.88503 -97.04207 598 ft 23 kts 270°
2026-05-06 14:07 32.88504 -97.04412 598 ft 26 kts 270°
2026-05-06 14:07 32.88504 -97.04614 598 ft 20 kts 270°
2026-05-06 14:07 32.88505 -97.04765 598 ft 13 kts 270°
2026-05-06 14:07 32.88499 -97.04872 598 ft 14 kts 246°
2026-05-06 14:08 32.88404 -97.04896 598 ft 16 kts 180°
2026-05-06 14:08 32.88287 -97.04896 598 ft 18 kts 180°
2026-05-06 14:08 32.88156 -97.04897 598 ft 20 kts 180°
2026-05-06 14:08 32.88024 -97.04898 598 ft 14 kts 180°
2026-05-06 14:09 32.87984 -97.04950 598 ft 8 kts 270°
2026-05-06 14:09 32.87984 -97.04973 598 ft 0 kts 270°
2026-05-06 14:09 32.87984 -97.04985 598 ft 4 kts 270°
2026-05-06 14:10 32.87984 -97.05041 598 ft 8 kts 270°
2026-05-06 14:10 32.88022 -97.05093 598 ft 10 kts 354°
2026-05-06 14:10 32.88158 -97.05092 598 ft 44 kts
2026-05-06 14:10 32.88694 -97.05088 598 ft 107 kts
2026-05-06 14:11 32.89610 -97.05085 646 ft 149 kts
2026-05-06 14:11 32.90635 -97.05102 1288 ft 149 kts 359°
2026-05-06 14:11 32.91338 -97.05126 1735 ft 150 kts 360°
2026-05-06 14:11 32.92376 -97.05148 2395 ft 153 kts
2026-05-06 14:12 32.93528 -97.05167 2701 ft 178 kts
2026-05-06 14:12 32.94843 -97.05197 2979 ft 203 kts 359°
2026-05-06 14:12 32.96364 -97.05224 3392 ft 228 kts 359°
2026-05-06 14:12 32.97982 -97.05251 4024 ft 243 kts 356°
2026-05-06 14:13 32.99721 -97.05283 4689 ft 258 kts 356°
2026-05-06 14:13 33.01578 -97.05303 5456 ft 267 kts 356°
2026-05-06 14:13 33.03443 -97.05315 6389 ft 270 kts 356°
2026-05-06 14:13 33.05306 -97.05328 7274 ft 273 kts 355°
2026-05-06 14:14 33.07241 -97.05366 8134 ft 275 kts 350°
2026-05-06 14:14 33.09182 -97.05628 8794 ft 286 kts 348°
2026-05-06 14:14 33.11152 -97.05920 9602 ft 290 kts 347°
2026-05-06 14:14 33.13149 -97.06220 10324 ft 298 kts 346°
2026-05-06 14:15 33.15286 -97.06550 10584 ft 322 kts 346°
2026-05-06 14:15 33.17586 -97.06905 10791 ft 345 kts 347°
2026-05-06 14:15 33.20041 -97.07277 10991 ft 367 kts 347°
2026-05-06 14:15 33.22613 -97.07655 11467 ft 377 kts 347°
2026-05-06 14:16 33.25246 -97.08034 12059 ft 384 kts 347°
2026-05-06 14:16 33.27924 -97.08417 12628 ft 391 kts 347°
2026-05-06 14:16 33.30645 -97.08807 13213 ft 398 kts 347°
2026-05-06 14:16 33.33417 -97.09210 13789 ft 405 kts 346°
2026-05-06 14:17 33.36233 -97.09623 14330 ft 410 kts 346°
2026-05-06 14:17 33.39077 -97.10041 14933 ft 413 kts 345°
2026-05-06 14:17 33.41934 -97.10458 15546 ft 415 kts 345°
2026-05-06 14:17 33.44827 -97.10781 16185 ft 423 kts 351°
2026-05-06 14:18 33.47806 -97.10579 16831 ft 434 kts 358°
2026-05-06 14:18 33.50824 -97.10188 17476 ft 437 kts 357°
2026-05-06 14:18 33.53851 -97.09802 18110 ft 441 kts 356°
2026-05-06 14:18 33.56923 -97.09413 18698 ft 445 kts 356°
2026-05-06 14:19 33.60001 -97.09025 19246 ft 448 kts 356°
2026-05-06 14:19 33.63131 -97.08633 19784 ft 452 kts 356°
2026-05-06 14:19 33.66261 -97.08238 20323 ft 456 kts 356°
2026-05-06 14:19 33.69436 -97.07839 20831 ft 459 kts 356°
2026-05-06 14:20 33.72587 -97.07442 21297 ft 463 kts 355°
2026-05-06 14:20 33.75831 -97.07031 21786 ft 466 kts 356°
2026-05-06 14:20 33.79023 -97.06622 22303 ft 468 kts 356°
2026-05-06 14:20 33.82310 -97.06199 22767 ft 470 kts 356°
2026-05-06 14:21 33.85534 -97.05784 23193 ft 473 kts 356°
2026-05-06 14:21 33.88853 -97.05356 23621 ft 476 kts 356°
2026-05-06 14:21 33.92157 -97.04935 23970 ft 479 kts 355°
2026-05-06 14:21 33.95488 -97.04513 24323 ft 481 kts 355°
2026-05-06 14:22 33.98812 -97.04092 24668 ft 484 kts 355°
2026-05-06 14:22 34.02168 -97.03666 25050 ft 486 kts 355°
2026-05-06 14:22 34.05507 -97.03239 25398 ft 488 kts 355°
2026-05-06 14:22 34.08933 -97.02797 25737 ft 491 kts 355°
2026-05-06 14:23 34.12327 -97.02360 26081 ft 494 kts 355°
2026-05-06 14:23 34.15757 -97.01920 26418 ft 496 kts 355°
2026-05-06 14:23 34.19209 -97.01478 26742 ft 499 kts 355°
2026-05-06 14:23 34.22658 -97.01036 27058 ft 501 kts 355°
2026-05-06 14:24 34.26145 -97.00587 27368 ft 504 kts 355°
2026-05-06 14:24 34.29634 -97.00137 27685 ft 508 kts 355°
2026-05-06 14:24 34.33176 -96.99683 27899 ft 513 kts 355°
2026-05-06 14:24 34.36721 -96.99232 28176 ft 515 kts 354°
2026-05-06 14:25 34.40263 -96.99072 28581 ft 502 kts 347°
2026-05-06 14:25 34.43755 -96.99188 28993 ft 501 kts 347°
2026-05-06 14:25 34.47248 -96.99310 29429 ft 501 kts 346°
2026-05-06 14:25 34.50728 -96.99434 29868 ft 501 kts 346°
2026-05-06 14:26 34.54201 -96.99556 30322 ft 501 kts 346°
2026-05-06 14:26 34.57686 -96.99678 30693 ft 501 kts 345°
2026-05-06 14:26 34.61166 -96.99803 31093 ft 499 kts 345°
2026-05-06 14:26 34.64641 -96.99929 31509 ft 498 kts 345°
2026-05-06 14:27 34.68082 -97.00051 31932 ft 496 kts 344°
2026-05-06 14:27 34.71542 -97.00172 32365 ft 494 kts 344°
2026-05-06 14:27 34.74961 -97.00293 32796 ft 493 kts 344°
2026-05-06 14:27 34.78350 -97.00415 33247 ft 491 kts 343°
2026-05-06 14:28 34.81802 -97.00539 33691 ft 491 kts 343°
2026-05-06 14:28 34.85222 -97.00663 34003 ft 492 kts 343°
2026-05-06 14:28 34.92056 -97.00914 34071 ft 497 kts 343°
2026-05-06 14:29 34.98970 -97.01159 34062 ft 498 kts 343°
2026-05-06 14:29 35.05888 -97.01403 34089 ft 499 kts 343°
2026-05-06 14:30 35.12845 -97.01659 34062 ft 500 kts 343°
2026-05-06 14:30 35.19801 -97.01916 34092 ft 500 kts 343°
2026-05-06 14:31 35.26764 -97.02171 34104 ft 501 kts 343°
2026-05-06 14:31 35.33731 -97.02411 34123 ft 500 kts 343°
2026-05-06 14:32 35.40680 -97.02658 34102 ft 499 kts 343°
2026-05-06 14:32 35.47618 -97.02912 34098 ft 499 kts 342°
2026-05-06 14:33 35.54562 -97.03167 34092 ft 499 kts 342°
2026-05-06 14:33 35.61493 -97.03423 34112 ft 497 kts 342°
2026-05-06 14:34 35.68409 -97.03674 34115 ft 498 kts 342°
2026-05-06 14:34 35.75334 -97.03931 34120 ft 498 kts 342°
2026-05-06 14:35 35.82262 -97.04185 34119 ft 498 kts 342°
2026-05-06 14:35 35.89187 -97.04434 34120 ft 498 kts 342°
2026-05-06 14:36 35.96124 -97.04675 34116 ft 498 kts 342°
2026-05-06 14:36 36.03044 -97.04924 34122 ft 497 kts 342°
2026-05-06 14:37 36.09965 -97.05189 33545 ft 497 kts 342°
2026-05-06 14:37 36.13418 -97.05324 32999 ft 496 kts 343°
2026-05-06 14:37 36.16867 -97.05457 32470 ft 496 kts 343°
2026-05-06 14:38 36.20322 -97.05589 31941 ft 497 kts 343°
2026-05-06 14:38 36.23731 -97.05717 31435 ft 497 kts 343°
2026-05-06 14:38 36.27236 -97.05846 30920 ft 498 kts 344°
2026-05-06 14:38 36.30700 -97.05973 30491 ft 498 kts 344°
2026-05-06 14:39 36.34165 -97.06099 30062 ft 498 kts 344°
2026-05-06 14:39 36.37637 -97.06226 29566 ft 499 kts 344°
2026-05-06 14:39 36.41060 -97.06355 29088 ft 500 kts 345°
2026-05-06 14:39 36.44585 -97.06486 28599 ft 501 kts 345°
2026-05-06 14:40 36.48031 -97.06614 28132 ft 503 kts 345°
2026-05-06 14:40 36.51534 -97.06746 27658 ft 504 kts 345°
2026-05-06 14:40 36.55038 -97.06879 27260 ft 505 kts 345°
2026-05-06 14:40 36.58593 -97.07011 26810 ft 506 kts 346°
2026-05-06 14:41 36.62069 -97.07141 26372 ft 507 kts 346°
2026-05-06 14:41 36.65599 -97.07273 25939 ft 508 kts 346°
2026-05-06 14:41 36.69129 -97.07405 25506 ft 509 kts 346°
2026-05-06 14:41 36.72669 -97.07540 25084 ft 510 kts 347°
2026-05-06 14:42 36.76216 -97.07671 24612 ft 508 kts 347°
2026-05-06 14:42 36.79731 -97.07797 24095 ft 504 kts 347°
2026-05-06 14:42 36.83226 -97.07923 23522 ft 499 kts 347°
2026-05-06 14:42 36.86675 -97.08046 22876 ft 494 kts 348°
2026-05-06 14:43 36.90100 -97.08168 22243 ft 489 kts 348°
2026-05-06 14:43 36.93481 -97.08290 21625 ft 483 kts 348°
2026-05-06 14:43 36.96766 -97.08401 21007 ft 459 kts 348°
2026-05-06 14:43 36.99876 -97.08493 20416 ft 436 kts 347°
2026-05-06 14:44 37.02845 -97.08586 19874 ft 418 kts 347°
2026-05-06 14:44 37.05693 -97.08688 19303 ft 402 kts 347°
2026-05-06 14:44 37.08447 -97.08799 18744 ft 392 kts 347°
2026-05-06 14:45 37.13888 -97.09053 17530 ft 391 kts 347°
2026-05-06 14:45 37.16488 -97.09449 16901 ft 361 kts 334°
2026-05-06 14:45 37.18716 -97.10573 16299 ft 331 kts 319°
2026-05-06 14:45 37.20488 -97.12216 15704 ft 305 kts 306°
2026-05-06 14:46 37.21797 -97.14188 15154 ft 283 kts 295°
2026-05-06 14:46 37.22669 -97.16306 14651 ft 266 kts 286°
2026-05-06 14:46 37.23339 -97.18426 14157 ft 258 kts 286°
2026-05-06 14:46 37.24001 -97.20501 13633 ft 256 kts 287°
2026-05-06 14:47 37.24666 -97.22596 13080 ft 261 kts 287°
2026-05-06 14:47 37.25340 -97.24724 12537 ft 265 kts 288°
2026-05-06 14:47 37.26027 -97.26893 12013 ft 269 kts 289°
2026-05-06 14:47 37.26727 -97.29099 11521 ft 274 kts 290°
2026-05-06 14:48 37.27432 -97.31321 10999 ft 272 kts 290°
2026-05-06 14:48 37.28125 -97.33489 10493 ft 265 kts 291°
2026-05-06 14:48 37.28796 -97.35594 10104 ft 255 kts 291°
2026-05-06 14:48 37.29579 -97.37545 9681 ft 246 kts 304°
2026-05-06 14:49 37.30716 -97.39115 9245 ft 241 kts 319°
2026-05-06 14:49 37.32114 -97.40213 8825 ft 236 kts 335°
2026-05-06 14:49 37.33654 -97.40895 8401 ft 232 kts 340°
2026-05-06 14:49 37.35170 -97.41532 7968 ft 229 kts 341°
2026-05-06 14:50 37.36690 -97.42180 7550 ft 234 kts 342°
2026-05-06 14:50 37.38255 -97.42847 7132 ft 240 kts 343°
2026-05-06 14:50 37.39839 -97.43525 6683 ft 240 kts 344°
2026-05-06 14:50 37.41406 -97.44195 6262 ft 237 kts 343°
2026-05-06 14:51 37.42961 -97.44856 5812 ft 233 kts 346°
2026-05-06 14:51 37.44481 -97.45504 5372 ft 230 kts 345°
2026-05-06 14:51 37.45988 -97.46147 4941 ft 227 kts 346°
2026-05-06 14:51 37.47437 -97.46768 4545 ft 212 kts 346°
2026-05-06 14:52 37.48766 -97.47344 4328 ft 194 kts 346°
2026-05-06 14:52 37.50019 -97.47885 4132 ft 188 kts 346°
2026-05-06 14:52 37.51252 -97.48254 3934 ft 174 kts
2026-05-06 14:52 37.52382 -97.48062 3720 ft 158 kts 22°
2026-05-06 14:53 37.53402 -97.47596 3541 ft 155 kts 24°
2026-05-06 14:53 37.54407 -97.47139 3353 ft 153 kts 24°
2026-05-06 14:53 37.55407 -97.46684 3153 ft 153 kts 23°
2026-05-06 14:53 37.56404 -97.46229 2963 ft 152 kts 22°
2026-05-06 14:54 37.57400 -97.45774 2770 ft 152 kts 22°
2026-05-06 14:54 37.58354 -97.45339 2573 ft 141 kts 21°
2026-05-06 14:54 37.59265 -97.44923 2396 ft 136 kts 22°
2026-05-06 14:54 37.60145 -97.44513 2262 ft 136 kts 22°
2026-05-06 14:55 37.61026 -97.44106 2070 ft 135 kts 22°
2026-05-06 14:55 37.61618 -97.43839 1916 ft 136 kts 20°
2026-05-06 14:55 37.62813 -97.43304 1663 ft 138 kts 20°
2026-05-06 14:55 37.63408 -97.43031 1557 ft 138 kts 19°
2026-05-06 14:56 37.64302 -97.42619 1378 ft 137 kts 20°
2026-05-06 14:56 37.65343 -97.42142 1329 ft 91 kts 20°
2026-05-06 14:56 37.65670 -97.41993 1328 ft 58 kts 20°
2026-05-06 14:56 37.65934 -97.41872 1327 ft 28 kts 20°
2026-05-06 14:57 37.66038 -97.41872 1324 ft 13 kts 311°
2026-05-06 14:57 37.66049 -97.41974 1324 ft 13 kts 238°
2026-05-06 14:57 37.65970 -97.42022 1327 ft 13 kts 199°
2026-05-06 14:57 37.65878 -97.42062 1328 ft 15 kts 200°
2026-05-06 14:58 37.65775 -97.42108 1331 ft 16 kts 200°
2026-05-06 14:58 37.65664 -97.42160 1332 ft 19 kts 199°
2026-05-06 14:58 37.65529 -97.42222 1329 ft 22 kts 200°
2026-05-06 14:58 37.65393 -97.42285 1329 ft 21 kts 200°
2026-05-06 14:59 37.65243 -97.42354 1326 ft 21 kts 200°
2026-05-06 14:59 37.65150 -97.42399 1327 ft 13 kts 212°
2026-05-06 14:59 37.65148 -97.42505 1328 ft 14 kts 288°
2026-05-06 14:59 37.65140 -97.42590 1327 ft 8 kts 232°
2026-05-06 15:00 37.65086 -97.42626 1328 ft 10 kts 219°
2026-05-06 15:00 37.65051 -97.42696 1330 ft 10 kts 255°
2026-05-06 15:00 37.65041 -97.42801 1331 ft 15 kts 265°
2026-05-06 15:00 37.65032 -97.42937 1331 ft 17 kts 264°
2026-05-06 15:01 37.65020 -97.43094 1332 ft 17 kts 264°
2026-05-06 15:01 37.65058 -97.43202 1333 ft 15 kts 328°
2026-05-06 15:01 37.65158 -97.43276 1332 ft 17 kts 330°
2026-05-06 15:01 37.65235 -97.43298 1333 ft 12 kts 27°
2026-05-06 15:02 37.65273 -97.43206 1333 ft 9 kts 59°
2026-05-06 15:02 37.65293 -97.43169 1334 ft 0 kts 60°